User: anonymous   Login
Location: Vancouver
(49.2500°N, 123.1330°W)
Time: 14:55:04
(UTC-07:00)
Language:

Iridium 35 - Orbit

View from above orbital plane
View from above orbital plane
View from above satellite
View from above satellite

Ground track
Ground track

The orbit data is extracted from the following two-line orbital elements,

1 24966U 97056B   17266.43885710 -.00000047  00000-0 -23973-4 0  9993
2 24966  86.3916 277.6059 0002181  87.8816 272.2630 14.34219001 46612
Epoch (UTC): 23 September 2017 10:31:57
Eccentricity: 0.0002181
inclination: 86.3916°
perigee height: 776 km
apogee height: 779 km
right ascension of ascending node: 277.6059°
argument of perigee: 87.8816°
revolutions per day: 14.34219001
mean anomaly at epoch: 272.2630°
orbit number at epoch: 4661

The dashed part of the orbit path shows where the satellite is in the earth's shadow,  

DLR